ATLAS 5 CENTAUR R/B, 43227

Orbit data source: Space-Track

ATLAS 5 CENTAUR R/B, 43227 is space debris in HEO originally from a launch on Thu, 01 Mar 2018 UTC launched from the Air Force Eastern Test Range (AFETR). Debris objects in space refer to the collection of defunct objects orbiting the Earth. Examples of debris include non-operational satellites, rocket bodies, and fragments generated from explosions, collisions, or faulty payload assembly.

Loading next visibility...
Identifier
43227, 2018-022B
Orbit
HEO
Country
Flag of USUS
Related business
Flag of USUnited Launch Alliance/Lockheed Martin (US)
Manufacturer
ULA Decatur
Mission
Spacecraft
Bus & Motor
CENTAUR SEC, RL10C-1
Mass
~2,020 kg wet, 2,020 kg dry
Launch date (UTC)
2018-03-01 (8 years ago)
Launch vehicle
Unknown
Launch site
Air Force Eastern Test Range (AFETR)
Object type
Payload
Rocket body
Debris
Shape & HBR
Cyl + 1 Nozzle, 5.8 m
Radar Cross Section
32.260 m², Large (>1 m²)

Expand to show TLE details & history
Last TLE update: 2 days ago

TLE from 2 days ago
0 ATLAS 5 CENTAUR R/B
1 43227U 18022B   25308.47118902 -.00000131  00000-0  00000+0 0  9996
2 43227  10.3301  32.5321 4967593  41.7707 346.9185  1.88583307  7852
Epoch: 2025-11-04T11:18Z
TLE epoch observation values (Epoch: 2025-11-04T11:18:30.731Z)
Latitude
-0.00003°
Longitude
178.8562°
Altitude
8,814.535 km
Speed
6.17 km/s
True Right ascension
02h 09m 46s
True Declination
0° 00' 00"
Sunlit
Object was in full shadow at epoch
Visualization orbit readout
Latitude
Unknown
Longitude
Unknown
Altitude
Unknown
Speed
Unknown
Apparent Right ascension
Unknown
Apparent Declination
Unknown
Sunlit
N/A
Visualization observer readout
Local Sidereal Time
07:38:54
Azimuth
Unknown
Elevation
Unknown
Doppler factor
Unknown
Orbital elements
Apogee altitude
35,046.14 km
Perigee altitude
7,549.541 km
Semi-major axis
27,675.978 km
Eccentricity
0.49676
Inclination
10.3301°
RAAN
32.5321°
Arg. of periapsis
41.7707°
True anomaly
317.837°
Mean anomaly
346.9185°
Eccentric anomaly
334.79978°
Mean motion
0.4714 °/min
Orbital period
763.68 mins
BSTAR
0
Loading maneuver chart data...
Computing Atmospheric mass density...
Loading historical data...
Loading historical data...
Loading historical data...
Loading historical data...
Loading historical data...
Loading historical data...
Loading historical data...
Other satellites on launch #22 in the year 2018 (2018-03-01 UTC)

Documentation

Showing up to 5 results
|